User: anonymous   Login
Location: San Francisco
(37.7750°N, 122.4180°W)
Time: 06:39:47
(UTC-07:00)
Language:

GP-B - Orbit

View from above orbital plane
View from above orbital plane
View from above satellite
View from above satellite

Ground track
Ground track

The orbit data is extracted from the following two-line orbital elements,

1 28230U 04014A   16121.57003411  .00000260  00000-0  33454-4 0  9997
2 28230  89.8582 129.5131 0002572 106.4500 253.7006 14.78409461648130
Epoch (UTC): 30 April 2016 13:40:50
Eccentricity: 0.0002572
inclination: 89.8582°
perigee height: 632 km
apogee height: 636 km
right ascension of ascending node: 129.5131°
argument of perigee: 106.4500°
revolutions per day: 14.78409461
mean anomaly at epoch: 253.7006°
orbit number at epoch: 64813

The dashed part of the orbit path shows where the satellite is in the earth's shadow,  

DLR